DW7628 Weather Reports


Display with metric or nautical units.
time (UTC)temp
F
wind
direction
speed
MPH
gust
MPH
rain 1hr
in
rain 24hr
in
rain mn
in
humidity
%
barometer
mb
20260509011304 56 278 0.0 0.0 0.00 0.00 0.00 88 1012.2
20260509010804 57 278 0.0 0.0 0.00 0.00 0.00 88 1012.3
20260509010304 56 15 0.0 0.0 0.00 0.00 0.00 89 1012.2
20260509005804 57 69 0.0 0.0 0.00 0.00 0.00 89 1012.3
20260509005306 57 69 0.0 0.0 0.00 0.00 0.00 89 1012.2
20260509004804 57 89 0.0 0.0 0.00 0.00 0.00 89 1012.3
20260509004304 57 94 0.0 0.0 0.00 0.00 0.00 89 1012.4
20260509003804 57 94 0.0 0.0 0.00 0.00 0.00 89 1012.3
20260509003304 57 149 0.0 0.0 0.00 0.00 0.00 89 1012.4
20260509002807 57 168 0.0 0.0 0.00 0.00 0.00 89 1012.4
20260509002307 57 161 0.0 0.0 0.00 0.00 0.00 89 1012.4
20260509001806 57 113 0.0 0.0 0.00 0.00 0.00 89 1012.4
20260509001307 57 62 0.0 0.0 0.00 0.00 0.00 88 1012.4
20260509000807 57 48 0.0 0.0 0.00 0.00 0.00 88 1012.4
20260509000306 57 46 0.0 0.0 0.00 0.00 0.00 88 1012.4
20260508235806 57 120 0.0 0.0 0.00 0.00 0.00 88 1012.3
20260508235306 57 49 0.0 0.0 0.00 0.00 0.00 88 1012.3
20260508234306 57 44 0.0 0.0 0.00 0.00 0.00 88 1012.4
20260508233806 57 40 0.0 0.0 0.00 0.00 0.00 88 1012.4
20260508233306 57 86 0.0 0.0 0.00 0.00 0.00 88 1012.4
20260508232307 58 99 0.0 0.0 0.00 0.00 0.00 87 1012.4
20260508231806 58 54 0.0 0.0 0.00 0.00 0.00 87 1012.5
20260508231306 58 83 0.0 0.0 0.00 0.00 0.00 87 1012.4
20260508230806 58 58 0.0 0.0 0.00 0.00 0.00 86 1012.4
20260508230306 58 86 0.0 0.0 0.00 0.00 0.00 86 1012.5
20260508225307 58 198 0.0 0.0 0.00 0.00 0.00 86 1012.4
20260508224306 58 98 0.0 0.0 0.00 0.00 0.00 86 1012.5
20260508223306 58 77 0.0 0.0 0.00 0.00 0.00 87 1012.5
20260508222806 58 117 0.0 0.0 0.00 0.00 0.00 87 1012.4
20260508221806 58 161 0.0 0.0 0.00 0.00 0.00 87 1012.3
20260508221306 58 117 0.0 0.0 0.00 0.00 0.00 87 1012.4
20260508220832 58 70 0.0 0.0 0.00 0.00 0.00 87 1012.5
20260508220306 58 95 0.0 0.0 0.00 0.00 0.00 86 1012.5
20260508215806 58 54 0.0 0.0 0.00 0.00 0.00 86 1012.4
20260508215306 59 32 0.0 0.0 0.00 0.00 0.00 86 1012.4
20260508214806 59 9 0.0 0.0 0.00 0.00 0.00 85 1012.5
20260508214307 59 48 0.0 0.0 0.00 0.00 0.00 85 1012.4
20260508213306 60 126 0.0 0.0 0.00 0.00 0.00 84 1012.3
20260508212806 60 43 0.0 0.0 0.00 0.00 0.00 84 1012.2
20260508212306 60 130 0.0 0.0 0.00 0.00 0.00 83 1012.2
20260508211807 60 54 0.0 0.0 0.00 0.00 0.00 83 1012.1
20260508210806 60 222 0.0 0.0 0.00 0.00 0.00 83 1012.0
20260508210306 61 82 0.0 0.0 0.00 0.00 0.00 82 1012.0
20260508205806 61 57 0.0 0.0 0.00 0.00 0.00 82 1012.0
20260508205306 61 42 0.0 0.0 0.00 0.00 0.00 82 1012.1
20260508204806 61 58 0.0 0.0 0.00 0.00 0.00 81 1012.0
20260508204306 61 34 0.0 0.0 0.00 0.00 0.00 81 1011.9
20260508203806 61 35 0.0 0.0 0.00 0.00 0.00 80 1012.0
20260508203305 61 52 0.0 0.0 0.00 0.00 0.00 80 1011.9
20260508202806 62 23 0.0 0.0 0.00 0.00 0.00 80 1011.9
20260508202307 62 27 0.0 0.0 0.00 0.00 0.00 79 1011.9
20260508201306 62 18 0.0 0.0 0.00 0.00 0.00 79 1012.0
20260508200306 63 38 0.0 0.0 0.00 0.00 0.00 78 1011.9
20260508195806 63 98 0.0 0.0 0.00 0.00 0.00 78 1011.8
20260508195306 63 42 0.0 0.0 0.00 0.00 0.00 77 1011.7
20260508194806 63 28 0.0 0.0 0.00 0.00 0.00 77 1011.6
20260508194305 64 48 0.0 0.0 0.00 0.00 0.00 76 1011.6
20260508193806 64 37 0.0 0.0 0.00 0.00 0.00 76 1011.5
20260508193306 64 28 0.0 0.0 0.00 0.00 0.00 75 1011.5
20260508192805 64 32 0.0 0.0 0.00 0.00 0.00 75 1011.2
20260508192306 65 61 0.0 0.0 0.00 0.00 0.00 74 1011.2
20260508191806 65 39 0.0 0.0 0.00 0.00 0.00 74 1011.0
20260508191306 65 34 0.0 0.0 0.00 0.00 0.00 73 1011.0
20260508190806 65 56 0.0 0.0 0.00 0.00 0.00 73 1011.0
20260508190306 65 36 0.0 0.0 0.00 0.00 0.00 72 1010.8
20260508185806 65 42 0.0 0.0 0.00 0.00 0.00 72 1010.9
20260508185306 65 22 0.0 0.0 0.00 0.00 0.00 71 1010.8
20260508184806 65 95 0.0 0.0 0.00 0.00 0.00 71 1010.7
20260508184306 66 270 0.0 0.0 0.00 0.00 0.00 71 1010.6
20260508183806 66 11 0.0 0.0 0.00 0.00 0.00 71 1010.5
20260508183306 66 287 0.0 0.0 0.00 0.00 0.00 70 1010.5
20260508182805 66 151 0.0 0.0 0.00 0.00 0.00 69 1010.4
20260508181805 67 32 0.0 0.0 0.00 0.00 0.00 67 1010.4
20260508181306 68 87 0.0 0.0 0.00 0.00 0.00 66 1010.4
20260508180805 68 7 0.0 0.0 0.00 0.00 0.00 65 1010.4
20260508180306 68 94 0.0 0.0 0.00 0.00 0.00 64 1010.4
20260508175805 68 49 0.0 0.0 0.00 0.00 0.00 63 1010.4
20260508175306 69 206 0.0 0.0 0.00 0.00 0.00 63 1010.4
20260508174805 69 298 0.0 0.0 0.00 0.00 0.00 62 1010.3
20260508174306 69 10 0.0 0.0 0.00 0.00 0.00 60 1010.2
20260508173806 69 275 0.0 0.0 0.00 0.00 0.00 59 1010.1
20260508173307 70 239 0.0 0.0 0.00 0.00 0.00 58 1010.1
20260508172806 70 296 0.0 0.0 0.00 0.00 0.00 57 1010.0
20260508171805 70 214 0.0 0.0 0.00 0.00 0.00 54 1010.0
20260508171305 71 271 0.0 0.0 0.00 0.00 0.00 53 1010.0
20260508170806 71 185 0.0 0.0 0.00 0.00 0.00 52 1010.0
20260508165806 71 71 0.0 0.0 0.00 0.00 0.00 50 1009.9
20260508165307 72 264 0.0 0.0 0.00 0.00 0.00 49 1009.9
20260508164806 72 231 0.0 0.0 0.00 0.00 0.00 49 1009.8
20260508164306 72 286 0.0 0.0 0.00 0.00 0.00 48 1009.7
20260508163806 73 228 0.0 0.0 0.00 0.00 0.00 47 1009.7
20260508163305 73 21 0.0 0.0 0.00 0.00 0.00 45 1009.6
20260508162806 74 255 0.0 0.0 0.00 0.00 0.00 44 1009.6
20260508162307 74 278 0.0 0.0 0.00 0.00 0.00 42 1009.5
20260508160805 75 223 0.0 0.0 0.00 0.00 0.00 43 1009.5
20260508155306 75 235 0.0 0.0 0.00 0.00 0.00 42 1009.6
20260508154805 75 266 0.0 0.0 0.00 0.00 0.00 42 1009.7
20260508153805 76 350 0.0 0.0 0.00 0.00 0.00 40 1009.7
20260508153306 75 180 0.0 0.0 0.00 0.00 0.00 42 1009.7
20260508152306 75 97 0.0 0.0 0.00 0.00 0.00 41 1009.7
20260508151805 75 325 0.0 0.0 0.00 0.00 0.00 42 1009.6
20260508151306 76 271 0.0 0.0 0.00 0.00 0.00 44 1009.6
20260508150305 75 267 0.0 0.0 0.00 0.00 0.00 45 1009.6
20260508145806 75 270 0.0 0.0 0.00 0.00 0.00 45 1009.6
20260508145307 76 306 0.0 0.0 0.00 0.00 0.00 44 1009.6
20260508144806 76 288 0.0 0.0 0.00 0.00 0.00 43 1009.5
20260508144305 76 216 0.0 0.0 0.00 0.00 0.00 44 1009.5
20260508143806 76 264 0.0 0.0 0.00 0.00 0.00 44 1009.5
20260508143305 76 304 0.0 0.0 0.00 0.00 0.00 42 1009.5
20260508142806 76 257 0.0 0.0 0.00 0.00 0.00 43 1009.5
20260508142307 76 292 0.0 0.0 0.00 0.00 0.00 42 1009.5
20260508141805 77 66 0.0 0.0 0.00 0.00 0.00 43 1009.5
20260508141305 77 298 0.0 0.0 0.00 0.00 0.00 44 1009.6
20260508140805 76 308 0.0 0.0 0.00 0.00 0.00 45 1009.5
20260508140305 76 203 0.0 0.0 0.00 0.00 0.00 46 1009.6
20260508135805 76 255 0.0 0.0 0.00 0.00 0.00 47 1009.6
20260508135306 77 251 0.0 0.0 0.00 0.00 0.00 45 1009.7
20260508134805 77 220 0.0 0.0 0.00 0.00 0.00 46 1009.7
20260508133806 76 229 0.0 0.0 0.00 0.00 0.00 46 1009.7
20260508132805 77 189 0.0 0.0 0.00 0.00 0.00 49 1009.7
20260508132306 76 259 0.0 0.0 0.00 0.00 0.00 49 1009.7
20260508131805 77 202 0.0 0.0 0.00 0.00 0.00 47 1009.6
20260508131305 76 190 0.0 0.0 0.00 0.00 0.00 47 1009.7
20260508130305 77 208 0.0 0.0 0.00 0.00 0.00 46 1009.8
20260508125806 77 68 0.0 0.0 0.00 0.00 0.00 46 1009.7
20260508125306 77 15 0.0 0.0 0.00 0.00 0.00 47 1009.8
20260508124805 77 43 0.0 0.0 0.00 0.00 0.00 46 1009.7
20260508124305 76 206 0.0 0.0 0.00 0.00 0.00 49 1009.8
20260508123805 77 260 0.0 0.0 0.00 0.00 0.00 49 1009.7
20260508123305 76 214 0.0 0.0 0.00 0.00 0.00 49 1009.8
20260508122805 76 157 0.0 0.0 0.00 0.00 0.00 51 1009.8
20260508121806 76 278 0.0 0.0 0.00 0.00 0.00 48 1009.8
20260508121305 76 151 0.0 0.0 0.00 0.00 0.00 47 1009.9
20260508120805 76 182 0.0 0.0 0.00 0.00 0.00 51 1009.8
20260508120305 76 220 0.0 0.0 0.00 0.00 0.00 51 1009.9
20260508115805 76 216 0.0 0.0 0.00 0.00 0.00 51 1009.9
20260508115306 76 254 0.0 0.0 0.00 0.00 0.00 51 1009.9
20260508114805 75 235 0.0 0.0 0.00 0.00 0.00 51 1009.9
20260508113805 75 252 0.0 0.0 0.00 0.00 0.00 51 1009.8
20260508113306 75 202 0.0 0.0 0.00 0.00 0.00 51 1009.8
20260508112805 76 206 0.0 0.0 0.00 0.00 0.00 51 1009.9
20260508112307 75 248 0.0 0.0 0.00 0.00 0.00 52 1009.9
20260508111806 74 282 0.0 0.0 0.00 0.00 0.00 53 1009.9
20260508111305 75 217 0.0 0.0 0.00 0.00 0.00 52 1009.8
20260508110305 75 302 0.0 0.0 0.00 0.00 0.00 54 1009.9
20260508105805 74 301 0.0 0.0 0.00 0.00 0.00 54 1009.9
20260508105306 74 269 0.0 0.0 0.00 0.00 0.00 54 1009.9
20260508104805 74 27 0.0 0.0 0.00 0.00 0.00 54 1009.9
20260508104305 74 299 0.0 0.0 0.00 0.00 0.00 55 1010.0
20260508103805 74 33 0.0 0.0 0.00 0.00 0.00 54 1009.9
20260508103306 74 164 0.0 0.0 0.00 0.00 0.00 55 1009.9
20260508102804 74 188 0.0 0.0 0.00 0.00 0.00 55 1010.1
20260508101804 73 189 0.0 0.0 0.00 0.00 0.00 57 1010.1
20260508101305 73 79 0.0 0.0 0.00 0.00 0.00 56 1010.1
20260508100804 72 229 0.0 0.0 0.00 0.00 0.00 57 1010.1
20260508100305 73 305 0.0 0.0 0.00 0.00 0.00 56 1010.1
20260508095804 72 334 0.0 0.0 0.00 0.00 0.00 57 1010.1
20260508094805 71 348 0.0 0.0 0.00 0.00 0.00 58 1010.0
20260508094304 72 249 0.0 0.0 0.00 0.00 0.00 58 1010.1
20260508093805 72 287 0.0 0.0 0.00 0.00 0.00 58 1010.1
20260508093305 72 313 0.0 0.0 0.00 0.00 0.00 59 1010.1
20260508092805 72 226 0.0 0.0 0.00 0.00 0.00 58 1010.0
20260508092312 72 18 0.0 0.0 0.00 0.00 0.00 58 1010.0
20260508091805 72 78 0.0 0.0 0.00 0.00 0.00 59 1009.9
20260508091305 72 9 0.0 0.0 0.00 0.00 0.00 58 1009.9
20260508090304 71 271 0.0 0.0 0.00 0.00 0.00 57 1010.0
20260508085805 71 267 0.0 0.0 0.00 0.00 0.00 59 1010.0
20260508085307 70 167 0.0 0.0 0.00 0.00 0.00 60 1010.0
20260508084804 70 285 0.0 0.0 0.00 0.00 0.00 60 1009.9
20260508084305 71 33 0.0 0.0 0.00 0.00 0.00 58 1009.9
20260508083804 70 148 0.0 0.0 0.00 0.00 0.00 62 1009.8
20260508083305 69 39 0.0 0.0 0.00 0.00 0.00 63 1009.8
20260508082306 68 320 0.0 0.0 0.00 0.00 0.00 64 1009.7
20260508081304 69 54 0.0 0.0 0.00 0.00 0.00 65 1009.7
20260508080805 69 6 0.0 0.0 0.00 0.00 0.00 64 1009.7
20260508080304 68 152 0.0 0.0 0.00 0.00 0.00 66 1009.8
20260508075805 67 178 0.0 0.0 0.00 0.00 0.00 71 1009.8
20260508075308 67 35 0.0 0.0 0.00 0.00 0.00 70 1009.9
20260508074804 67 56 0.0 0.0 0.00 0.00 0.00 71 1009.8
20260508074305 67 33 0.0 0.0 0.00 0.00 0.00 70 1009.7
20260508073805 66 228 0.0 0.0 0.00 0.00 0.00 71 1009.6
20260508072805 66 180 0.0 0.0 0.00 0.00 0.00 72 1009.7
20260508072307 66 226 0.0 0.0 0.00 0.00 0.00 73 1009.7
20260508070804 65 48 0.0 0.0 0.00 0.00 0.00 74 1009.5
20260508070304 65 172 0.0 0.0 0.00 0.00 0.00 74 1009.5
20260508065805 65 107 0.0 0.0 0.00 0.00 0.00 76 1009.7
20260508065307 64 43 0.0 0.0 0.00 0.00 0.00 77 1009.7
20260508064805 64 81 0.0 0.0 0.00 0.00 0.00 75 1009.7
20260508064304 64 83 0.0 0.0 0.00 0.00 0.00 74 1009.6
20260508063805 64 56 0.0 0.0 0.00 0.00 0.00 74 1009.6
20260508063305 63 169 0.0 0.0 0.00 0.00 0.00 77 1009.6
20260508062804 62 209 0.0 0.0 0.00 0.00 0.00 79 1009.6
20260508062306 61 168 0.0 0.0 0.00 0.00 0.00 79 1009.6
20260508061304 60 251 0.0 0.0 0.00 0.00 0.00 82 1009.6
20260508060804 60 248 0.0 0.0 0.00 0.00 0.00 82 1009.5
20260508060305 59 116 0.0 0.0 0.00 0.00 0.00 83 1009.4
20260508055804 59 276 0.0 0.0 0.00 0.00 0.00 83 1009.3
20260508055306 59 90 0.0 0.0 0.00 0.00 0.00 84 1009.3
20260508054804 58 91 0.0 0.0 0.00 0.00 0.00 84 1009.3
20260508054304 58 90 0.0 0.0 0.00 0.00 0.00 84 1009.3
20260508053805 58 81 0.0 0.0 0.00 0.00 0.00 84 1009.2
20260508053304 58 212 0.0 0.0 0.00 0.00 0.00 85 1009.2
20260508052804 58 251 0.0 0.0 0.00 0.00 0.00 85 1009.1
20260508052306 58 255 0.0 0.0 0.00 0.00 0.00 85 1009.1
20260508051804 58 243 0.0 0.0 0.00 0.00 0.00 85 1009.1
20260508051304 58 305 0.0 0.0 0.00 0.00 0.00 85 1009.0
20260508050804 57 305 0.0 0.0 0.00 0.00 0.00 85 1009.0
20260508050304 57 48 0.0 0.0 0.00 0.00 0.00 86 1009.0
20260508045306 57 48 0.0 0.0 0.00 0.00 0.00 86 1008.8
20260508044804 57 48 0.0 0.0 0.00 0.00 0.00 86 1008.6
20260508044305 57 48 0.0 0.0 0.00 0.00 0.00 87 1008.6
20260508043804 56 48 0.0 0.0 0.00 0.00 0.00 87 1008.5
20260508043305 56 48 0.0 0.0 0.00 0.00 0.00 88 1008.5
20260508042804 56 48 0.0 0.0 0.00 0.00 0.00 89 1008.5
20260508042307 56 48 0.0 0.0 0.00 0.00 0.00 89 1008.5
20260508041804 56 48 0.0 0.0 0.00 0.00 0.00 89 1008.3
20260508041304 56 48 0.0 0.0 0.00 0.00 0.00 89 1008.2
20260508040804 56 48 0.0 0.0 0.00 0.00 0.00 89 1008.2
20260508040304 56 48 0.0 0.0 0.00 0.00 0.00 89 1008.1
20260508035804 56 48 0.0 0.0 0.00 0.00 0.00 89 1008.1
20260508035306 56 48 0.0 0.0 0.00 0.00 0.00 89 1008.0
20260508034805 56 48 0.0 0.0 0.00 0.00 0.00 89 1008.1
20260508034304 56 48 0.0 0.0 0.00 0.00 0.00 89 1008.0
20260508033804 56 48 0.0 0.0 0.00 0.00 0.00 88 1007.9
20260508033304 56 48 0.0 0.0 0.00 0.00 0.00 89 1007.8
20260508032306 56 48 0.0 0.0 0.00 0.00 0.00 89 1007.9
20260508031805 56 48 0.0 0.0 0.00 0.00 0.00 89 1007.8
20260508030804 56 48 0.0 0.0 0.00 0.00 0.00 89 1007.7
20260508030304 56 48 0.0 0.0 0.00 0.00 0.00 88 1007.6
20260508025804 56 48 0.0 0.0 0.00 0.00 0.00 88 1007.5
20260508025306 57 48 0.0 0.0 0.00 0.00 0.00 88 1007.5
20260508024305 57 48 0.0 0.0 0.00 0.00 0.00 88 1007.6
20260508022804 57 49 0.0 0.0 0.00 0.00 0.00 89 1007.3
20260508022307 57 49 0.0 0.0 0.00 0.00 0.00 89 1007.2
20260508021804 57 49 0.0 0.0 0.00 0.00 0.00 89 1007.2
20260508021304 57 49 0.0 0.0 0.00 0.00 0.00 89 1007.2
20260508020804 57 49 0.0 0.0 0.00 0.00 0.00 89 1007.3
20260508020304 57 49 0.0 0.0 0.00 0.00 0.00 88 1007.3
20260508015804 57 49 0.0 0.0 0.00 0.00 0.00 88 1007.3
20260508015306 57 49 0.0 0.0 0.00 0.00 0.00 87 1007.4
20260508014804 58 48 0.0 0.0 0.00 0.00 0.00 87 1007.4
20260508014304 58 48 0.0 0.0 0.00 0.00 0.00 86 1007.3
20260508013803 58 48 0.0 0.0 0.00 0.00 0.00 86 1007.4
20260508012803 58 48 0.0 0.0 0.00 0.00 0.00 85 1007.3
20260508012307 58 46 0.0 0.0 0.00 0.00 0.00 85 1007.4
20260508011804 58 85 0.0 0.0 0.00 0.00 0.00 85 1007.4